Terug naar catalogus

STARLINK-31955

ActiefCommunicatieVLEO
NORAD 59939·PAYLOAD·🇺🇸 United States

Gelanceerd Jun 1, 2024 vanaf Cape Canaveral Space Force Station

Loading…

Volgende Passages (komende 24 uur)

TLE

VersSource: CelesTrak SupGP

Epoch: Sep 15, 2026, 01:56 UTC

1 59939C 24106T   26258.08104167  .00047588  00000+0  16613-2 0  2586
2 59939  43.0040 342.4930 0002651 321.5530  10.1029 15.28754600    18

Volg STARLINK-31955 in realtime met AllMySat

Download on the App Store